Location: Wald
(31.7579°N, 86.6655°W)
Time: 11:59:38
(UTC+00:00)

COBE Rocket - Pass Details

Date: 14 July 2020
Orbit: 679 x 783 km, 97.1° (Epoch: 08 August)

Event Time Altitude Azimuth Distance (km) Brightness Sun altitude
Exits shadow 09:01:51 39° 250° (WSW) 1,122 4.4 -20.0°
Maximum altitude 09:02:15 40° 262° (W) 1,108 4.4 -20.0°
Drops below altitude 10° 09:06:54 10° 332° (NNW) 2,250 6.6 -19.2°
Sets 09:09:18 0° 340° (NNW) 3,158 7.5 -18.9°
